"2009-01-17 00:00:00",547557,13.01,326.2,4.67,1.077,15.49,104.6987,11.3,12.58,13.97,0,110.3,13.3,12.09,288.2
"2009-01-17 00:00:30",547558,12.08,321.3,5.833,1.099,13.7,104.7025,11.31,12.38,13.57,0,110.3,13.3,12.10,283.3
"2009-01-17 00:01:00",547559,10.73,314.5,0.655,0.323,10.64,104.7049,11.32,12.31,13.58,0,110.3,13.33,12.11,276.5
"2009-01-17 00:01:30",547560,10.71,313.3,2.709,0.298,11.17,104.7047,11.32,12.34,13.61,0,110.3,13.33,12.11,275.3
"2009-01-17 00:02:00",547561,11.76,320.6,6.644,1.468,13.69,104.7048,11.32,12.36,13.68,0,110.3,13.3,12.11,282.6
"2009-01-17 00:02:30",547562,11.78,322.5,5.481,0.909,15.48,104.6978,11.3,12.46,13.89,0,110.3,13.31,12.09,284.5
"2009-01-17 00:03:00",547563,11.63,319.6,7.199,1.723,14.33,104.6916,11.28,12.46,13.86,0,110.3,13.31,12.07,281.6
"2009-01-17 00:03:30",547564,12.28,323.2,6.408,1.46,14.38,104.6977,11.3,12.48,13.78,0,110.3,13.31,12.09,285.2
"2009-01-17 00:04:00",547565,11.06,319.1,4.721,1.237,13.1,104.6947,11.29,12.35,13.72,0,110.2,13.31,12.08,281.1
"2009-01-17 00:04:30",547566,10.96,317.4,5.928,1.078,12.31,104.6885,11.28,12.29,13.75,0,110.2,13.31,12.07,279.4
"2009-01-17 00:05:00",547567,10.13,312.5,5.927,0.946,11.56,104.6909,11.28,12.33,13.86,0,110.2,13.31,12.07,274.5
"2009-01-17 00:05:30",547568,11.43,318.4,7.229,1.093,13.85,104.6936,11.29,12.43,13.88,0,110.2,13.31,12.08,280.4
"2009-01-17 00:06:00",547569,11.84,321.7,7.985,1.658,14.32,104.6936,11.29,12.46,13.96,0,110.2,13.31,12.08,283.7
"2009-01-17 00:06:30",547570,11.13,319.7,6.572,1.313,14.69,104.6827,11.26,12.49,14.15,0,110.2,13.31,12.05,281.7
"2009-01-17 00:07:00",547571,10.67,316.1,6.113,1.314,13.19,104.6676,11.22,12.38,14.12,0,110.2,13.31,12.01,278.1
"2009-01-17 00:07:30",547572,10.58,314.9,6.662,1.381,12.55,104.6689,11.23,12.25,13.99,0,110.2,13.31,12.02,276.9
"2009-01-17 00:08:00",547573,10.75,315.1,5.693,1.326,12.51,104.6689,11.23,12.31,13.99,0,110.2,13.31,12.02,277.1
"2009-01-17 00:08:30",547574,10.48,314.2,6.18,1.129,12.34,104.67,11.23,12.25,13.93,0,110.2,13.31,12.02,276.2
"2009-01-17 00:09:00",547575,10.79,317.1,7.134,1.294,12.99,104.6684,11.22,12.31,13.98,0,110.2,13.31,12.02,279.1
"2009-01-17 00:09:30",547576,12.41,324.3,6.538,1.132,14.87,104.6599,11.2,12.37,14.02,0,110.2,13.31,11.99,286.3
"2009-01-17 00:10:00",547577,12.26,325.1,6.081,1.248,14.85,104.656,11.19,12.34,13.87,0,110.2,13.31,11.98,287.1
"2009-01-17 00:10:30",547578,11.45,320.6,6.743,1.468,13.44,104.6466,11.17,12.32,13.95,0,110.2,13.31,11.96,282.6
"2009-01-17 00:11:00",547579,10.56,315.5,6.198,1.163,12.62,104.6379,11.15,12.28,13.93,0,110.2,13.31,11.94,277.5
"2009-01-17 00:11:30",547580,9.96,312.1,3.295,0.802,10.71,104.6362,11.14,12.12,13.81,0,110.2,13.31,11.93,274.1
"2009-01-17 00:12:00",547581,11.41,319.3,6.694,1.283,12.55,104.6362,11.14,12.26,13.88,0,110.2,13.31,11.93,281.3
"2009-01-17 00:12:30",547582,12.09,320.3,7.429,1.619,13.52,104.6362,11.14,12.2,13.75,0,110.2,13.31,11.93,282.3
"2009-01-17 00:13:00",547583,13.5,322.7,6.036,1.173,14.84,104.6362,11.14,12.33,13.81,0,110.2,13.31,11.93,284.7
"2009-01-17 00:13:30",547584,13.02,320.1,7.142,1.183,14.67,104.6368,11.14,12.34,13.74,0,110.2,13.31,11.93,282.1
"2009-01-17 00:14:00",547585,13.44,323.2,5.67,1.193,14.61,104.6393,11.15,12.36,13.72,0,110.2,13.31,11.94,285.2
"2009-01-17 00:14:30",547586,12.23,318.1,7.62,1.331,12.06,104.6483,11.17,12.11,13.45,0,110.2,13.31,11.96,280.1
"2009-01-17 00:15:00",547587,12.14,320.6,7.707,1.348,13.09,104.6571,11.19,12.25,13.61,0,110.2,13.31,11.99,282.6
"2009-01-17 00:15:30",547588,11.45,316.2,7.034,0.937,12.48,104.6554,11.19,12.27,13.68,0,110.2,13.31,11.98,278.2
"2009-01-17 00:16:00",547589,11.65,318.2,6.316,1.218,13.17,104.6447,11.16,12.26,13.81,0,110.2,13.31,11.95,280.2
"2009-01-17 00:16:30",547590,13.06,324.8,4.655,1.036,15.44,104.6394,11.15,12.36,13.88,0,110.2,13.31,11.94,286.8
"2009-01-17 00:17:00",547591,12.96,322.1,6.058,1.213,14.52,104.6409,11.15,12.34,13.87,0,110.2,13.31,11.94,284.1
"2009-01-17 00:17:30",547592,13.23,323.3,6.993,1.274,13.69,104.6433,11.16,12.32,13.71,0,110.2,13.32,11.95,285.3
"2009-01-17 00:18:00",547593,11.3,314.7,4.205,0.696,11.01,104.6433,11.16,12.18,13.54,0,110.2,13.32,11.95,276.7
"2009-01-17 00:18:30",547594,12.55,318.4,7.21,1.17,13.06,104.6454,11.16,12.19,13.56,0,110.2,13.32,11.96,280.4
"2009-01-17 00:19:00",547595,11.78,316.4,6.021,1.307,12.71,104.6477,11.17,12.23,13.73,0,110.2,13.33,11.96,278.4
"2009-01-17 00:19:30",547596,12.61,318.7,7.871,1.747,14.05,104.651,11.18,12.35,13.86,0,110.2,13.33,11.97,280.7
"2009-01-17 00:20:00",547597,13.68,325.7,4.902,0.979,15.29,104.6566,11.19,12.38,13.68,0,110.2,13.33,11.98,287.7
"2009-01-17 00:20:30",547598,12.08,321.1,6.851,1.165,13.7,104.6592,11.2,12.31,13.71,0,110.2,13.33,11.99,283.1
"2009-01-17 00:21:00",547599,10.01,314.5,5.271,1.022,11.27,104.6592,11.2,12.17,13.64,0,110.2,13.33,11.99,276.5
"2009-01-17 00:21:30",547600,11.04,318.2,6.46,1.407,12.95,104.645,11.16,12.25,13.75,0,110.2,13.33,11.95,280.2
"2009-01-17 00:22:00",547601,10.27,316.6,4.023,0.596,11.45,104.6504,11.18,12.21,13.6,0,110.2,13.33,11.97,278.6
"2009-01-17 00:22:30",547602,11.23,319.7,7.944,1.486,13.05,104.6445,11.16,12.11,13.47,0,110.2,13.33,11.95,281.7
"2009-01-17 00:23:00",547603,12.15,322.1,4.559,0.672,15.74,104.636,11.14,12.38,13.84,0,110.2,13.33,11.93,284.1
"2009-01-17 00:23:30",547604,12.56,322,3.65,0.572,15.77,104.6372,11.14,12.36,13.8,0,110.1,13.33,11.93,284.0
"2009-01-17 00:24:00",547605,11.53,319.6,5.686,1.205,13.92,104.6378,11.15,12.16,13.57,0,110.2,13.33,11.94,281.6
"2009-01-17 00:24:30",547606,10.28,313,5.231,0.885,11.04,104.6378,11.15,12.08,13.57,0,110.2,13.33,11.94,275.0
"2009-01-17 00:25:00",547607,11.7,317.2,6.515,1.417,13.16,104.6378,11.15,12.12,13.43,0,110.2,13.33,11.94,279.2
"2009-01-17 00:25:30",547608,10.77,310.9,1.776,0.52,11.08,104.6378,11.15,12.02,13.21,0,110.2,13.36,11.94,272.9
"2009-01-17 00:26:00",547609,11.71,319.2,5.381,0.96,14.69,104.6378,11.15,12.31,13.39,0,110.2,13.33,11.94,281.2
"2009-01-17 00:26:30",547610,11.96,320.8,3.838,0.764,15.88,104.6378,11.15,12.37,13.56,0,110.2,13.33,11.94,282.8
"2009-01-17 00:27:00",547611,11.1,315.7,7.218,1.377,14.08,104.6378,11.15,12.17,13.33,0,110.2,13.33,11.94,277.7
"2009-01-17 00:27:30",547612,10.2,313.9,7.086,1.495,12.79,104.6389,11.15,12.2,13.36,0,110.2,13.33,11.94,275.9
"2009-01-17 00:28:00",547613,10.03,311.1,2.241,0.619,10.48,104.6378,11.15,12.16,13.37,0,110.2,13.33,11.94,273.1
"2009-01-17 00:28:30",547614,11.24,317.3,7.792,0.992,13,104.6378,11.15,12.11,13.28,0,110.2,13.33,11.94,279.3
"2009-01-17 00:29:00",547615,11.45,315.4,7.489,1.312,13.78,104.6378,11.15,12.21,13.42,0,110.2,13.33,11.94,277.4
"2009-01-17 00:29:30",547616,12.29,315.2,5.635,0.992,15.27,104.6378,11.15,12.33,13.44,0,110.2,13.33,11.94,277.2
"2009-01-17 00:30:00",547617,12.25,317,5.325,0.989,15.34,104.6378,11.15,12.28,13.38,0,110.2,13.33,11.94,279.0
"2009-01-17 00:30:30",547618,11.41,313.6,7.034,1.272,12.81,104.6361,11.14,12.15,13.26,0,110.2,13.33,11.93,275.6
"2009-01-17 00:31:00",547619,11.07,313.5,6.744,1.37,13,104.6361,11.14,12.19,13.24,0,110.1,13.33,11.93,275.5
"2009-01-17 00:31:30",547620,10.48,311,4.864,0.968,12.25,104.6333,11.13,12.19,13.26,0,110.1,13.33,11.92,273.0
"2009-01-17 00:32:00",547621,11.32,312.8,7.555,1.303,13.22,104.631,11.13,12.19,13.25,0,110.2,13.33,11.92,274.8
"2009-01-17 00:32:30",547622,11.23,315.1,7.672,1.246,13.23,104.6259,11.12,12.22,13.37,0,110.2,13.33,11.91,277.1
"2009-01-17 00:33:00",547623,11.42,319.6,6.469,1.153,14.39,104.6115,11.08,12.29,13.52,0,110.1,13.33,11.87,281.6
"2009-01-17 00:33:30",547624,10.85,315.4,6.716,1.245,13.31,104.6039,11.06,12.18,13.65,0,110.1,13.33,11.85,277.4
"2009-01-17 00:34:00",547625,10.64,314.8,7.605,1.196,12.62,104.6034,11.06,12.24,13.72,0,110.1,13.33,11.85,276.8
"2009-01-17 00:34:30",547626,10.85,315.1,5.07,1.168,11.7,104.5949,11.04,12.02,13.36,0,110.1,13.34,11.83,277.1
"2009-01-17 00:35:00",547627,11.47,318,7.451,1.416,13.26,104.6008,11.05,12.21,13.34,0,110.1,13.34,11.84,280.0
"2009-01-17 00:35:30",547628,10.75,314.4,7.372,1.462,12.68,104.6036,11.06,12,13.2,0,110.1,13.34,11.85,276.4
"2009-01-17 00:36:00",547629,11.12,315.3,7.466,1.293,13.47,104.6036,11.06,12.2,13.4,0,110.1,13.34,11.85,277.3
"2009-01-17 00:36:30",547630,11.49,316.9,6.129,1.263,14.61,104.6051,11.06,12.22,13.34,0,110.1,13.34,11.85,278.9
"2009-01-17 00:37:00",547631,10.57,313.4,6.079,1.202,12.83,104.6051,11.06,12.12,13.17,0,110.1,13.34,11.85,275.4
"2009-01-17 00:37:30",547632,10.69,318.3,7.85,1.184,13,104.6066,11.07,12.15,13.16,0,110.1,13.34,11.86,280.3
"2009-01-17 00:38:00",547633,11.07,320.8,7.34,1.374,13.55,104.6078,11.07,12.17,13.25,0,110.1,13.34,11.86,282.8
"2009-01-17 00:38:30",547634,10.53,314.4,8.74,1.202,11.95,104.6092,11.07,12.05,13.14,0,110.1,13.34,11.86,276.4
"2009-01-17 00:39:00",547635,10.18,311.5,5.936,1.238,12.84,104.611,11.08,12.12,13.11,0,110.1,13.34,11.87,273.5
"2009-01-17 00:39:30",547636,11.09,320,6.288,1.158,14.38,104.6131,11.08,12.19,13.14,0,110.1,13.34,11.87,282.0
"2009-01-17 00:40:00",547637,10.86,319.6,6.418,1.27,14.05,104.6166,11.09,12.23,13.16,0,110.1,13.34,11.88,281.6
"2009-01-17 00:40:30",547638,10.29,317.7,7.599,1.357,13.16,104.6157,11.09,12.02,12.99,0,110.1,13.34,11.88,279.7
"2009-01-17 00:41:00",547639,10.05,315.7,6.374,1.341,12.6,104.6104,11.08,12.13,13.13,0,110.1,13.34,11.87,277.7
"2009-01-17 00:41:30",547640,10.66,318.3,7.092,1.355,13.84,104.606,11.06,12.17,13.14,0,110.1,13.34,11.85,280.3
"2009-01-17 00:42:00",547641,9.6,314.1,5.259,1.211,11.58,104.6076,11.07,11.96,12.92,0,110.1,13.34,11.86,276.1
"2009-01-17 00:42:30",547642,10.35,317.7,7.135,1.299,13.29,104.6072,11.07,12.16,13.08,0,110.1,13.34,11.86,279.7
"2009-01-17 00:43:00",547643,10.62,317.8,6.397,1.363,13.83,104.6066,11.07,12.18,13.13,0,110.1,13.34,11.86,279.8
"2009-01-17 00:43:30",547644,11.18,324.8,4.493,1.019,14.75,104.6088,11.07,12.16,13.04,0,110.1,13.34,11.86,286.8
"2009-01-17 00:44:00",547645,10.76,321.1,6.86,1.303,12.87,104.6191,11.1,12.12,12.93,0,110.1,13.34,11.89,283.1
"2009-01-17 00:44:30",547646,11.15,321.7,6.093,1.223,14.03,104.6186,11.1,12.17,13.08,0,110.1,13.34,11.89,283.7
"2009-01-17 00:45:00",547647,9.2,311.6,1.247,0.533,10.5,104.6199,11.1,11.96,12.87,0,110.1,13.34,11.89,273.6
"2009-01-17 00:45:30",547648,9.81,314.3,5.886,0.927,11.71,104.6137,11.08,12.02,12.92,0,110.1,13.34,11.87,276.3
"2009-01-17 00:46:00",547649,10.88,319.6,7.27,1.249,14.34,104.616,11.09,12.16,13.1,0,110.1,13.34,11.88,281.6
"2009-01-17 00:46:30",547650,10.73,313.6,6.216,1.339,14.08,104.6044,11.06,12.21,13.37,0,110.1,13.34,11.85,275.6
"2009-01-17 00:47:00",547651,10.55,316.9,7.272,1.384,13.95,104.6028,11.06,12.2,13.38,0,110.1,13.34,11.85,278.9
"2009-01-17 00:47:30",547652,10.84,319.3,6.233,1.24,13.62,104.6005,11.05,12.18,13.35,0,110.1,13.34,11.84,281.3
"2009-01-17 00:48:00",547653,10.91,319.4,6.328,1.359,12.9,104.6022,11.05,12.02,13.06,0,110.1,13.34,11.85,281.4
"2009-01-17 00:48:30",547654,9.85,315.3,1.682,0.297,10.78,104.604,11.06,11.92,12.86,0,110.1,13.37,11.85,277.3
"2009-01-17 00:49:00",547655,10.87,322.2,6.078,1.317,13.63,104.6099,11.07,12.01,12.76,0,110.1,13.34,11.86,284.2
"2009-01-17 00:49:30",547656,11.22,322.9,6.594,1.456,14.47,104.6306,11.13,12.21,12.92,0,110,13.34,11.92,284.9
"2009-01-17 00:50:00",547657,11.31,324.2,4.758,1.321,14.67,104.6391,11.15,12.25,12.93,0,110.1,13.34,11.94,286.2
"2009-01-17 00:50:30",547658,11,323.2,6.531,1.174,14.35,104.6394,11.15,12.18,12.89,0,110.1,13.34,11.94,285.2
"2009-01-17 00:51:00",547659,10.11,319.9,6.485,1.355,12.98,104.6394,11.15,12.19,12.87,0,110.1,13.35,11.94,281.9
"2009-01-17 00:51:30",547660,8.67,310.3,1.389,0.116,10.33,104.6394,11.15,12.01,12.71,0,110.1,13.38,11.94,272.3
"2009-01-17 00:52:00",547661,8.82,311.2,1.498,0.224,10.91,104.6394,11.15,12.02,12.67,0,110.1,13.38,11.94,273.2
"2009-01-17 00:52:30",547662,9.73,315,6.159,1.238,13.07,104.6416,11.16,12.26,12.77,0,110.1,13.35,11.95,277.0
"2009-01-17 00:53:00",547663,11.66,321.7,6.278,1.21,15,104.6456,11.17,12.28,12.88,0,110.1,13.35,11.96,283.7
"2009-01-17 00:53:30",547664,12.06,323.1,4.23,0.654,15.54,104.6436,11.16,12.31,12.97,0,110.1,13.35,11.95,285.1
"2009-01-17 00:54:00",547665,11.01,319.5,6.856,1.434,13.31,104.6394,11.15,12.27,13.04,0,110.1,13.35,11.94,281.5
"2009-01-17 00:54:30",547666,10.27,316.7,6.105,1.305,11.64,104.6394,11.15,12.1,12.84,0,110.1,13.35,11.94,278.7
"2009-01-17 00:55:00",547667,9.11,313.7,0.764,0.075,10.77,104.6394,11.15,12.04,12.61,0,110.1,13.38,11.94,275.7
"2009-01-17 00:55:30",547668,9.81,315.8,6.421,1.233,12.39,104.6495,11.18,12.04,12.46,0,110.1,13.35,11.97,277.8
"2009-01-17 00:56:00",547669,11.21,318.1,6.657,1.382,13.91,104.6605,11.2,12.25,12.73,0,110.1,13.35,11.99,280.1
"2009-01-17 00:56:30",547670,12.01,318.8,5.674,1.075,15.31,104.6597,11.2,12.32,12.87,0,110.1,13.35,11.99,280.8
"2009-01-17 00:57:00",547671,12.02,320.6,5.932,1.12,14.84,104.6597,11.2,12.33,12.83,0,110.1,13.35,11.99,282.6
"2009-01-17 00:57:30",547672,10.84,314.8,7.178,1.422,12.87,104.6616,11.21,12.31,12.77,0,110.1,13.35,12.00,276.8
"2009-01-17 00:58:00",547673,10.56,312.1,5.798,1.037,11.94,104.6597,11.2,12.15,12.61,0,110.1,13.35,11.99,274.1
"2009-01-17 00:58:30",547674,10.11,308.4,4.998,0.808,11.55,104.6585,11.2,12.13,12.53,0,110.1,13.35,11.99,270.4
"2009-01-17 00:59:00",547675,10.17,311.4,5.601,1.358,12.43,104.6616,11.21,12.12,12.47,0,110.1,13.35,12.00,273.4
"2009-01-17 00:59:30",547676,11.11,321.4,5.572,1.075,15.63,104.6602,11.2,12.35,12.64,0,110.1,13.35,11.99,283.4
"2009-01-17 01:00:00",547677,11.12,324,4.853,1.129,14.96,104.6718,11.23,12.36,12.55,0,110.1,13.35,12.02,286.0
"2009-01-17 01:00:30",547678,10.82,322.9,5.295,1.058,14.59,104.6732,11.24,12.3,12.47,0,110.1,13.35,12.03,284.9
"2009-01-17 01:01:00",547679,10.1,318.8,6.163,1.217,12.96,104.6749,11.24,12.28,12.41,0,110.1,13.35,12.03,280.8
"2009-01-17 01:01:30",547680,8.27,310,1.588,0.288,10.33,104.6738,11.24,12.12,12.41,0,110.1,13.38,12.03,272.0
"2009-01-17 01:02:00",547681,9.53,316.8,6.002,0.982,12.22,104.6732,11.24,12.25,12.51,0,110.1,13.35,12.03,278.8
"2009-01-17 01:02:30",547682,9.13,318.5,5.674,1.195,12.37,104.68,11.25,12.21,12.29,0,110.1,13.35,12.04,280.5
"2009-01-17 01:03:00",547683,11.11,323.7,4.736,0.662,16.09,104.6882,11.27,12.47,12.54,0,110.1,13.35,12.07,285.7
"2009-01-17 01:03:30",547684,10.5,323.1,6.14,1.225,14.73,104.6842,11.26,12.39,12.68,0,110.1,13.35,12.06,285.1
"2009-01-17 01:04:00",547685,11.02,320,6.54,0.872,14.21,104.6735,11.24,12.32,12.62,0,110.1,13.35,12.03,282.0
"2009-01-17 01:04:30",547686,9.27,311.8,6.202,0.957,11.65,104.6732,11.24,12.29,12.74,0,110.1,13.35,12.03,273.8
"2009-01-17 01:05:00",547687,8.54,308.9,0.411,0.1,10.31,104.6701,11.23,12.15,12.68,0,110.1,13.38,12.02,270.9
"2009-01-17 01:05:30",547688,10.15,316,6.98,1.362,12.88,104.6585,11.2,12.23,12.93,0,110.1,13.35,11.99,278.0
"2009-01-17 01:06:00",547689,10.39,318.6,6.345,1.359,13.6,104.6515,11.18,12.34,13.04,0,110.1,13.35,11.97,280.6
"2009-01-17 01:06:30",547690,10.93,322.4,6.583,1.175,14.86,104.6436,11.16,12.37,13.11,0,110.1,13.36,11.95,284.4
"2009-01-17 01:07:00",547691,10.35,322.6,6.929,1.313,13.29,104.6396,11.15,12.26,13.08,0,110.1,13.36,11.94,284.6
"2009-01-17 01:07:30",547692,9.14,319.5,6.2,1.245,12.02,104.6394,11.15,12.22,13.12,0,110.1,13.36,11.94,281.5
"2009-01-17 01:08:00",547693,9.42,324.3,6.556,1.323,12.81,104.6394,11.15,12.21,13.09,0,110.1,13.36,11.94,286.3
"2009-01-17 01:08:30",547694,9.13,322.9,6.038,1.407,12.03,104.6394,11.15,12.08,12.92,0,110.1,13.36,11.94,284.9
"2009-01-17 01:09:00",547695,10.38,325.2,7.752,1.306,13.4,104.6396,11.15,12.22,13,0,110.1,13.36,11.94,287.2
"2009-01-17 01:09:30",547696,10.91,327.3,6.901,1.314,14.67,104.6518,11.18,12.33,13.05,0,110.1,13.36,11.97,289.3
"2009-01-17 01:10:00",547697,10.73,328.1,5.631,1.235,14.52,104.6625,11.21,12.33,12.95,0,110.1,13.36,12.00,290.1
"2009-01-17 01:10:30",547698,10.96,327.2,6.333,1.202,14.4,104.6726,11.23,12.38,13,0,110.1,13.36,12.03,289.2
"2009-01-17 01:11:00",547699,10.73,328.6,6.004,1.302,14.21,104.6732,11.24,12.27,12.89,0,110.1,13.36,12.03,290.6
"2009-01-17 01:11:30",547700,9.07,315.9,1.635,0.254,10.66,104.6732,11.24,12.13,12.76,0,110.1,13.36,12.03,277.9
"2009-01-17 01:12:00",547701,9.79,318.4,5.54,1.097,12.03,104.6732,11.24,12.26,12.89,0,110.1,13.36,12.03,280.4
"2009-01-17 01:12:30",547702,10.64,324,5.264,1.275,14.63,104.6735,11.24,12.38,13.02,0,110.1,13.36,12.03,286.0
"2009-01-17 01:13:00",547703,10.24,324.1,7.281,1.254,13.64,104.6738,11.24,12.26,12.86,0,110.1,13.36,12.03,286.1
"2009-01-17 01:13:30",547704,10.02,322.9,5.939,1.183,13.68,104.6744,11.24,12.4,12.97,0,110.1,13.36,12.03,284.9
"2009-01-17 01:14:00",547705,10.31,324.8,6.156,1.281,14.4,104.6744,11.24,12.35,12.94,0,110.1,13.36,12.03,286.8
"2009-01-17 01:14:30",547706,8.81,316.4,4.288,0.957,11.22,104.6747,11.24,12.22,12.87,0,110.1,13.36,12.03,278.4
"2009-01-17 01:15:00",547707,8.2,314.7,3.015,0.419,10.7,104.6739,11.24,12.2,12.97,0,110.1,13.39,12.03,276.7
"2009-01-17 01:15:30",547708,10.78,328,7.343,1.196,14.8,104.6744,11.24,12.4,13.07,0,110.1,13.36,12.03,290.0
"2009-01-17 01:16:00",547709,10.74,328.5,6.495,1.014,14.75,104.6751,11.24,12.34,13.01,0,110.1,13.36,12.03,290.5
"2009-01-17 01:16:30",547710,9.14,322.5,3.278,0.908,11.15,104.6716,11.23,12.13,12.79,0,110.1,13.36,12.02,284.5
"2009-01-17 01:17:00",547711,10.13,329.2,7.257,1.397,13.8,104.6719,11.23,12.32,12.95,0,110.1,13.36,12.02,291.2
"2009-01-17 01:17:30",547712,9.94,329.2,7.741,1.283,13.83,104.6744,11.24,12.39,13.01,0,110.1,13.36,12.03,291.2
"2009-01-17 01:18:00",547713,8.44,322.5,5.151,1.004,11.7,104.67,11.23,12.21,12.94,0,110.1,13.36,12.02,284.5
"2009-01-17 01:18:30",547714,8.35,322.8,5.005,1.244,10.94,104.6621,11.21,12.17,13,0,110.1,13.36,12.00,284.8
"2009-01-17 01:19:00",547715,9.43,330.7,4.225,1.267,14.2,104.6443,11.16,12.38,13.4,0,110.1,13.36,11.95,292.7
"2009-01-17 01:19:30",547716,9.83,328.8,7.322,1.171,14.19,104.6423,11.16,12.22,13.08,0,110.1,13.36,11.95,290.8
"2009-01-17 01:20:00",547717,8.36,315.8,0.943,0.181,10.9,104.642,11.16,12.23,13.13,0,110.1,13.39,11.95,277.8
"2009-01-17 01:20:30",547718,9.97,327.7,5.611,1.184,14.63,104.6435,11.16,12.34,13.32,0,110.1,13.36,11.95,289.7
"2009-01-17 01:21:00",547719,9.8,331,5.526,1.166,14.09,104.6429,11.16,12.32,13.23,0,110.1,13.36,11.95,293.0
"2009-01-17 01:21:30",547720,7.754,319.9,2.097,0.153,10.69,104.6455,11.17,12.13,13,0,110.1,13.39,11.96,281.9
"2009-01-17 01:22:00",547721,9.54,325.3,7.121,1.271,13.8,104.6467,11.17,12.32,13.19,0,110.1,13.36,11.96,287.3
"2009-01-17 01:22:30",547722,9.83,323.9,6.956,1.275,13.49,104.6476,11.17,12.28,13.23,0,110.1,13.36,11.96,285.9
"2009-01-17 01:23:00",547723,9.35,325.7,6.218,1.15,12.64,104.6453,11.16,12.23,13.28,0,110.1,13.36,11.96,287.7
"2009-01-17 01:23:30",547724,9.59,328.2,6.446,1.38,12.71,104.6464,11.17,12.18,13.22,0,110.1,13.36,11.96,290.2
"2009-01-17 01:24:00",547725,9.84,331.5,7.181,1.46,13.86,104.6405,11.15,12.31,13.39,0,110.1,13.37,11.94,293.5
"2009-01-17 01:24:30",547726,10.06,329.4,6.295,1.29,13.27,104.6314,11.13,12.18,13.25,0,110.1,13.37,11.92,291.4
"2009-01-17 01:25:00",547727,8.6,326,3.714,0.698,10.61,104.6273,11.12,12.16,13.25,0,110.1,13.37,11.91,288.0
"2009-01-17 01:25:30",547728,10.11,333.6,5.722,1.212,14.42,104.6202,11.1,12.3,13.44,0,110.1,13.37,11.89,295.6
"2009-01-17 01:26:00",547729,9.24,330.1,6.354,1.158,13.17,104.6143,11.09,12.18,13.34,0,110.1,13.37,11.88,292.1
"2009-01-17 01:26:30",547730,7.602,324.6,1.952,0.161,10.54,104.6143,11.09,12.01,13.19,0,110.1,13.4,11.88,286.6
"2009-01-17 01:27:00",547731,9.18,330.1,6.805,1.366,12.78,104.6143,11.09,12.14,13.34,0,110.1,13.37,11.88,292.1
"2009-01-17 01:27:30",547732,9.01,334.1,7.093,1.334,13.7,104.6112,11.08,12.27,13.49,0,110.1,13.37,11.87,296.1
"2009-01-17 01:28:00",547733,8.64,329.6,7.067,1.322,12.38,104.6023,11.05,12.16,13.43,0,110.1,13.37,11.85,291.6
"2009-01-17 01:28:30",547734,8.84,331.5,6.714,1.273,13.04,104.5876,11.02,12.07,13.29,0,110.1,13.37,11.81,293.5
"2009-01-17 01:29:00",547735,8.5,329.7,7.025,1.349,12.78,104.5831,11.01,12.15,13.42,0,110.1,13.37,11.80,291.7
"2009-01-17 01:29:30",547736,8,326.1,6.791,1.31,12.23,104.5843,11.01,12.11,13.38,0,110.1,13.37,11.80,288.1
"2009-01-17 01:30:00",547737,7.016,318.8,1.907,0.247,10.37,104.584,11.01,11.95,13.26,0,110.1,13.4,11.80,280.8
"2009-01-17 01:30:30",547738,8.61,327.3,6.817,1.247,13.64,104.5837,11.01,12.08,13.35,0,110.1,13.37,11.80,289.3
"2009-01-17 01:31:00",547739,8.93,327.6,6.119,1.179,14.51,104.587,11.02,12.19,13.45,0,110.1,13.37,11.81,289.6
"2009-01-17 01:31:30",547740,9.11,327.5,6.329,1.242,13.53,104.5861,11.01,12.07,13.37,0,110.1,13.37,11.80,289.5
"2009-01-17 01:32:00",547741,8.07,320,5.055,1.012,11.26,104.5879,11.02,12.07,13.33,0,110.1,13.37,11.81,282.0
"2009-01-17 01:32:30",547742,8.76,322.3,6.377,1.21,12.07,104.5884,11.02,12.02,13.32,0,110.1,13.37,11.81,284.3
"2009-01-17 01:33:00",547743,8.76,326.2,6.591,1.281,12.59,104.5873,11.02,12.06,13.34,0,110.1,13.37,11.81,288.2
"2009-01-17 01:33:30",547744,7.494,320.7,0.913,0.097,10.46,104.5864,11.01,11.94,13.24,0,110.1,13.41,11.80,282.7
"2009-01-17 01:34:00",547745,8.96,326.8,6.833,1.322,13.27,104.5905,11.02,12.16,13.53,0,110.1,13.37,11.82,288.8
"2009-01-17 01:34:30",547746,9.45,327.2,6.018,1.196,13.95,104.5914,11.03,12.16,13.64,0,110.1,13.37,11.82,289.2
"2009-01-17 01:35:00",547747,8.79,323.1,6.741,1.352,13.39,104.5906,11.02,12.14,13.6,0,110.1,13.37,11.82,285.1
"2009-01-17 01:35:30",547748,9.35,325.9,6.141,1.194,14.33,104.5921,11.03,12.12,13.56,0,110.1,13.36,11.82,287.9
"2009-01-17 01:36:00",547749,9.12,319.2,6.373,1.179,11.97,104.592,11.03,11.95,13.51,0,110.1,13.36,11.82,281.2
"2009-01-17 01:36:30",547750,9.71,320.3,5.95,1.3,12.66,104.5929,11.03,12.01,13.68,0,110.1,13.36,11.82,282.3
"2009-01-17 01:37:00",547751,9.72,318.9,4.554,1.032,11.24,104.5943,11.03,11.91,13.63,0,110.1,13.36,11.82,280.9
"2009-01-17 01:37:30",547752,10.27,324.6,5.257,1.175,13.94,104.5973,11.04,12.14,13.87,0,110.1,13.37,11.83,286.6
"2009-01-17 01:38:00",547753,10.8,328.2,3.741,0.624,15.43,104.5973,11.04,12.2,13.87,0,110.1,13.36,11.83,290.2
"2009-01-17 01:38:30",547754,9.43,322.9,6.778,1.191,13.04,104.5973,11.04,12.15,13.9,0,110.1,13.36,11.83,284.9
"2009-01-17 01:39:00",547755,9.71,323.7,5.511,1.336,12.66,104.5982,11.04,12.11,13.98,0,110.1,13.37,11.83,285.7
"2009-01-17 01:39:30",547756,9.35,319.8,4.108,0.894,11.19,104.6003,11.05,12.07,13.97,0,110.1,13.37,11.84,281.8
"2009-01-17 01:40:00",547757,9.53,320.7,6.367,1.293,11.93,104.6014,11.05,11.94,13.86,0,110.1,13.37,11.84,282.7
"2009-01-17 01:40:30",547758,10.34,321.9,6.526,1.498,13.27,104.6011,11.05,12.08,14.08,0,110.1,13.37,11.84,283.9
"2009-01-17 01:41:00",547759,11.33,325.1,5.597,1.151,14.95,104.6008,11.05,12.24,14.26,0,110.1,13.37,11.84,287.1
"2009-01-17 01:41:30",547760,10.87,324.7,6.258,1.101,14.79,104.5991,11.05,12.18,14.33,0,110.1,13.37,11.84,286.7
"2009-01-17 01:42:00",547761,9.69,322.1,6.071,1.18,11.53,104.6017,11.05,11.98,14.21,0,110.1,13.37,11.84,284.1
"2009-01-17 01:42:30",547762,9.8,325.4,7.663,1.351,12.52,104.5975,11.04,12.07,14.38,0,110.1,13.37,11.83,287.4
"2009-01-17 01:43:00",547763,9.09,322.1,4.906,0.852,11.53,104.5867,11.01,12.04,14.4,0,110.1,13.37,11.81,284.1
"2009-01-17 01:43:30",547764,8.71,321.8,4.617,0.923,11.54,104.5825,11,12.07,14.42,0,110.1,13.37,11.79,283.8
"2009-01-17 01:44:00",547765,10.33,328.5,6.205,1.191,14.33,104.5761,10.99,12.05,14.3,0,110.1,13.37,11.78,290.5
"2009-01-17 01:44:30",547766,10.13,327.8,5.622,1.161,14.81,104.5834,11.01,12.13,14.34,0,110.1,13.37,11.80,289.8
"2009-01-17 01:45:00",547767,9.26,325.5,7.277,1.306,13.88,104.5888,11.02,12.17,14.31,0,110.1,13.37,11.81,287.5
"2009-01-17 01:45:30",547768,9.18,323.4,6.374,1.393,13.21,104.595,11.04,12.08,14.19,0,110.1,13.37,11.83,285.4
"2009-01-17 01:46:00",547769,8.77,316.3,6.736,0.984,11.57,104.6007,11.05,11.98,14.02,0,110.1,13.37,11.84,278.3
"2009-01-17 01:46:30",547770,9.59,315.4,6.833,1.243,12.52,104.5998,11.05,12.05,13.99,0,110.1,13.37,11.84,277.4
"2009-01-17 01:47:00",547771,9.15,314.1,9.65,1.551,13.1,104.6003,11.05,12.02,13.84,0,110.1,13.37,11.84,276.1
"2009-01-17 01:47:30",547772,8.73,316.5,6.843,1.182,14.14,104.597,11.04,12.16,13.74,0,110.1,13.37,11.83,278.5